Location: Grasslands National Park East Block
(49.0708°N, 106.5295°W)
Time: 15:53:14
(UTC-06:00)

Vanguard 1 Rocket - Pass Details

Date: 01 October 2019
Orbit: 650 x 4226 km, 34.3° (Epoch: 17 October)

Event Time Altitude Azimuth Distance (km) Brightness Sun altitude
Rises 17:14:27 0° 245° (WSW) 8,292 14.3 13.6°
Reaches altitude 10° 17:20:18 10° 241° (WSW) 7,395 14.6 12.7°
Maximum altitude 17:44:35 52° 175° (S) 4,304 11.0 8.9°
Drops below altitude 10° 18:01:22 10° 106° (ESE) 5,336 10.8 6.3°
Sets 18:04:46 0° 101° (ESE) 5,955 11.0 5.7°
